Regional Weather Roundup
Issued by NWS

Home | Current Version | Previous Version | Text Only | Print | Product List | Glossary On
Versions: 1 2 3 4 5 6 7 8 9 10 11 12 13 14 15 16 17 18 19 20 21 22 23 24 25 26 27 28 29 30 31 32 33 34 35 36 37 38 39 40 41 42 43 44 45 46 47 48 49 50
000
ASUS43 KMPX 040901
RWRMN
WEATHER ROUNDUP FOR MINNESOTA
NATIONAL WEATHER SERVICE TWIN CITIES/CHANHASSEN MN
400 AM CDT MON MAY 04 2015


NOTE: "FAIR" INDICATES FEW OR NO CLOUDS BELOW 12,000 FEET WITH NO
SIGNIFICANT WEATHER AND/OR OBSTRUCTIONS TO VISIBILITY. N/A MEANS
CURRENT SKY AND/OR WEATHER CONDITIONS ARE NOT AVAILABLE.

MNZ060>063-068>070-041000-
   Twin Cities Metro

CITY           SKY/WX    TMP DP  RH WIND       PRES   REMARKS
TWIN CITIES    MOCLDY    55  37  50 N14       30.02R
ST PAUL        CLEAR     54  38  54 N10       30.03R
CRYSTAL        FAIR      52  36  54 N6        30.03R
BLAINE         CLEAR     52  37  58 N6        30.04R
LAKEVILLE      FAIR      52  43  71 N8        30.01R
EDEN PRAIRIE   CLEAR     54  36  50 N8        30.01R
SOUTH ST PAUL  CLEAR     55  39  54 N9        30.02R
LAKE ELMO      FAIR      52  41  66 N7        30.03R
$$
MNZ001>005-007-008-013>017-022>024-027-028-041000-
   Northwest Minnesota

CITY           SKY/WX    TMP DP  RH WIND       PRES   REMARKS
BEMIDJI        CLEAR     33  28  83 NW5       30.10R WCI  29
HALLOCK        CLEAR     36  27  69 CALM      30.12R
ROSEAU         CLEAR     36  30  80 CALM      30.12R
WARROAD        CLEAR     36  32  87 W3        30.12R
THIEF RVR FALL CLEAR     45  34  65 NE7       30.12R
CROOKSTON      CLEAR     39  30  70 NE5       30.12R
MOORHEAD       CLEAR     37  25  60 N5        30.11R
PARK RAPIDS    CLEAR     35  29  78 CALM      30.09R
MAHNOMEN       FAIR      39  28  65 CALM      30.09R
$$
MNZ006-009>011-018-025>026-041000-
   North Central Minnesota

CITY           SKY/WX    TMP DP  RH WIND       PRES   REMARKS
BAUDETTE       CLEAR     36  33  89 W6        30.10R
FLAG ISLAND    CLEAR     43  37  81 NW13      30.09R
INTL FALLS     CLEAR     34  30  85 NW5       30.07R WCI  30
WASKISH        CLEAR     36  34  93 CALM      30.10R
BIG FORK       CLEAR     30  28  93 CALM      30.08R
LONGVILLE      CLEAR     36  34  93 CALM      30.09R
GRAND RAPIDS   CLEAR     37  28  70 CALM      30.07S
CRANE LAKE     CLEAR     28  28 100 CALM      30.07R
COOK           CLEAR     34  30  86 CALM      30.06R
WALKER         FAIR      35  31  83 CALM      30.08R
$$
MNZ012-019>021-037-041000-
   Northeast Minnesota

CITY           SKY/WX    TMP DP  RH WIND       PRES   REMARKS
DULUTH         CLEAR     46  33  60 N8        30.03R
ELY            CLEAR     34  34 100 W3        30.04R
HIBBING        CLEAR     37  30  75 N5        30.05R
EVELETH        CLEAR     43  34  70 NW3       30.06R
DULUTH HARBOR  CLEAR     50  37  62 E3        30.04R
TWO HARBORS    CLEAR     52  37  58 NW9       30.00R
SILVER BAY     CLEAR     48  36  61 NW8       29.99R
GRAND MARAIS     N/A     50  37  61 N10G22    29.95R
G MARAIS ARPRT CLEAR     41  34  75 NW9G16    29.98S
$$
MNZ029>031-032-039>041-046>048-054>057-064-041000-
   West Central Minnesota

CITY           SKY/WX    TMP DP  RH WIND       PRES   REMARKS
FERGUS FALLS   CLEAR     46  30  53 NE5       30.10R
WHEATON        CLEAR     41  28  60 CALM      30.11R
MORRIS         CLEAR     41  28  60 N5        30.07S
ALEXANDRIA     CLEAR     46  33  60 N7        30.09R
ELBOW LAKE     FAIR      47  35  64 NE6       30.08R
WADENA         CLEAR     37  28  70 CALM      30.09R
APPLETON       CLEAR     45  28  53 N8        30.07R
BENSON         CLEAR     41  30  65 NE3       30.07R
ORTONVILLE     CLEAR     45  32  61 NW6       30.08S
MADISON        CLEAR     43  28  56 NW6       30.07R
WILLMAR        FAIR      48  34  57 NE9       30.06R
$$
MNZ033>034-036-042>043-049>051-058-059-041000-
   Central Minnesota

CITY           SKY/WX    TMP DP  RH WIND       PRES   REMARKS
ST CLOUD       CLEAR     45  32  60 N6        30.05R
SAUK CENTRE    FAIR      46  32  60 N5        30.07R
PAYNESVILLE    CLEAR     44  31  59 NW3       30.06S
AITKIN         CLEAR     36  28  75 CALM      30.06R
PINE RIVER     CLEAR     36  30  80 CALM      30.12R
BRAINERD       CLEAR     43  38  82 CALM      30.08R
STAPLES        CLEAR     39  30  70 CALM      30.08S
LONG PRAIRIE   FAIR      45  32  61 NW6       30.08R
LITTLE FALLS   CLEAR     41  32  70 CALM      30.07R
LITCHFIELD     CLEAR     52  32  46 N7        30.05R
BUFFALO        CLEAR     51  35  53 N6        30.06R
MAPLE LAKE     CLEAR     49  37  61 N5        30.05R
$$
MNZ037-044-045-052-053-041000-
   East Central Minnesota

CITY           SKY/WX    TMP DP  RH WIND       PRES   REMARKS
PRINCETON      CLEAR     48  34  57 NW6       30.05R
MORA           CLEAR     45  32  61 CALM      30.06R
CAMBRIDGE      CLEAR     52  36  54 N5        30.03R
RUSH CITY      PTCLDY    47  33  59 N3        30.04R
MOOSE LAKE     CLEAR     45  32  61 N7        30.04R
HINCKLEY       FAIR      46  34  61 N8        30.03S
CLOQUET        CLEAR     45  30  57 NW7       30.04R
MCGREGOR       CLEAR     41  34  75 NW5       30.07R
$$
MNZ071>073-080-081-089-090-097-098-041000-
   Southwest Minnesota

CITY           SKY/WX    TMP DP  RH WIND       PRES   REMARKS
MONTEVIDEO     CLEAR     45  28  53 N6        30.07R
GRANITE FALLS  CLEAR     43  28  56 NW6       30.07R
CANBY          CLEAR     45  28  51 NW9       30.08S
MARSHALL       CLEAR     43  25  49 NW9       30.06R
REDWOOD FALLS  CLEAR     52  30  43 N7        30.04R
OLIVIA         CLEAR     46  28  49 N8        30.04R
PIPESTONE      CLEAR     48  27  43 NE6       30.06S
WORTHINGTON    CLEAR     48  27  43 N10       30.04S
JACKSON        PTCLDY    52  30  43 N8        30.02S
TRACY          CLEAR     49  28  44 NW9       30.06R
SLAYTON        CLEAR     49  28  43 N7        30.06S
$$
MNZ065>067-074>077-082>085-091>093-041000-
   South Central Minnesota

CITY           SKY/WX    TMP DP  RH WIND       PRES   REMARKS
MANKATO          N/A    N/A N/A N/A MISG        N/A
NEW ULM        CLEAR     52  30  43 N6        30.02S
ST JAMES       CLEAR     50  32  50 NW9       30.03R
FAIRMONT       PTCLDY    54  34  47 N10       30.01R
GLENCOE        CLEAR     50  36  58 N8        30.03R
FARIBAULT      CLEAR     54  45  71 N6        30.01R
OWATONNA       PTCLDY    52  45  76 N6        30.00R
WASECA         PTCLDY    52  45  76 N8        30.01R
ALBERT LEA     PTCLDY    54  48  82 N6        29.99R
$$
MNZ078>079-086>088-094>096-041000-
   Southeast Minnesota

CITY           SKY/WX    TMP DP  RH WIND       PRES   REMARKS
ROCHESTER      PTCLDY    52  50  93 N8        30.00R
RED WING       CLEAR     55  39  54 N5        29.98R
STANTON        CLEAR     52  45  77 CALM      29.99R
DODGE CENTER   CLEAR     52  48  87 N7        29.99R
WINONA         MOCLDY    57  55  94 N6        29.97R
AUSTIN         PTCLDY    54  50  87 N5        29.98R
PRESTON        MOCLDY    54  53  96 N8        29.96R
$$
ABBREVIATIONS USED IN REMARKS
   TC - TEMPERATURES IN CELSIUS
  WCI - WIND CHILL INDEX
   HX - HEAT INDEX
  VSB - VISIBILITY
$$



USA.gov is the U.S. government's official web portal to all federal, state and local government web resources and services.